Starlink 31729

operational
NORAD ID: 59610 Int'l Des: 2024-080 Owner: SPXS Country: US Constellation: starlink
LEOCIRCULAR

Über Starlink 31729

Beschreibung wird geladen...

Live-Position

3D-Globus wird geladen...

Nächste Überflüge

Höhenverlauf

Altitude vs Time

uPlot chart will show altitude changes over time

Zweizeiliger Elementsatz

1 59610U 24080K 25304.64149837 -.00000961 00000-0 -25412-4 0 9997
2 59610 43.0015 43.4802 0000871 261.8433 98.2319 15.27589454 84835
Epoch: 31. Okt. 2025 • Age: 9 hours

Aktueller Status

Höhe 482.4 km
Geschwindigkeit 7.63 km/s
Subsatellitenpunkt 4.16°N, 176.47°E
Startdatum 28. Apr. 2024
Alter 1.5 years
Typ internet

Technische Details

Klassifizierung Payload
Masse 730.00 kg
Trockenmasse 700.00 kg
Gesamtmasse 730.00 kg
Länge 0.30 m
Durchmesser 4.10 m
Spannweite 29.00 m
Form Box + pan
Hersteller SPXS
Bus-Typ Starlink V2M
Phasenstatus In Orbit
Besitzer/Staat SPXS/US

Große Konstellationen

Loading constellations...